Location: Il Ritiro
(43.4167°N, 13.1333°E)
Time: 15:39:08
(UTC+00:00)

Lacrosse 5 rocket - Pass Details

Date: 05 July 2020
Orbit: 465 x 632 km, 57.0° (Epoch: 11 August)

Event Time Altitude Azimuth Distance (km) Brightness Sun altitude
Rises 19:34:45 0° 274° (W) 2,833 5.9 -7.2°
Reaches altitude 10° 19:37:38 10° 292° (WNW) 1,902 5.4 -7.6°
Maximum altitude 19:40:44 19° 338° (NNW) 1,382 4.4 -8.0°
Drops below altitude 10° 19:43:45 10° 25° (NNE) 1,830 4.2 -8.4°
Sets 19:46:27 0° 44° (NE) 2,688 4.8 -8.8°
